When you browse on this site, cookies collect data to enhance your experience and personalize the content and advertising you see.
Visit our Privacy Policy to learn more. By continuing to use the site, you agree to this use of cookies and data.
  • In Hungary
  • List of Countries
  • For 7 days
  • Water Temperature
  • Weather Map
  • News
  • Weather Widgets
  • user-avatar
    Login

    Hourly Weather Caranavi

    Today, 17 November, Sunday

    Time Temperature Precipitation Wind Pressure Humidity
    00:00 +22°C° 0.7 mm 1 mps 687 mmHg 96%
    01:00 +21°C° 0 mm 1 mps 687 mmHg 98%
    02:00 +21°C° 0.1 mm 1 mps 687 mmHg 98%
    03:00 +21°C° 0.1 mm 1 mps 687 mmHg 97%
    04:00 +21°C° 0.1 mm 1 mps 687 mmHg 97%
    05:00 +22°C° 0 mm 1 mps 688 mmHg 93%
    06:00 +22°C° 0 mm 0 mps 689 mmHg 89%
    07:00 +23°C° 0 mm 0 mps 689 mmHg 84%
    08:00 +26°C° 0.1 mm 0 mps 690 mmHg 71%
    09:00 +30°C° 0.1 mm 1 mps 690 mmHg 57%
    10:00 +33°C° 0.1 mm 1 mps 690 mmHg 43%
    11:00 +32°C° 0.2 mm 1 mps 689 mmHg 47%
    12:00 +32°C° 0.2 mm 1 mps 688 mmHg 50%
    13:00 +31°C° 0.2 mm 1 mps 687 mmHg 53%
    14:00 +31°C° 0.2 mm 1 mps 687 mmHg 58%
    15:00 +30°C° 0.2 mm 1 mps 686 mmHg 63%
    16:00 +29°C° 0.2 mm 1 mps 686 mmHg 67%
    17:00 +27°C° 0.1 mm 1 mps 686 mmHg 75%
    18:00 +25°C° 0.1 mm 1 mps 687 mmHg 82%
    19:00 +23°C° 0.1 mm 1 mps 687 mmHg 90%
    20:00 +23°C° 0.1 mm 1 mps 688 mmHg 90%
    21:00 +23°C° 0.1 mm 1 mps 688 mmHg 90%
    22:00 +23°C° 0.1 mm 1 mps 689 mmHg 90%
    23:00 +22°C° 0.1 mm 1 mps 688 mmHg 91%

    Tomorrow, 18 November, Monday

    Time Temperature Precipitation Wind Pressure Humidity
    00:00 +22°C° 0.1 mm 1 mps 688 mmHg 92%
    01:00 +22°C° 0.1 mm 1 mps 688 mmHg 93%
    02:00 +21°C° 0.4 mm 1 mps 688 mmHg 94%
    03:00 +21°C° 0.4 mm 1 mps 688 mmHg 95%
    04:00 +21°C° 0.4 mm 1 mps 688 mmHg 96%
    05:00 +22°C° 0.1 mm 1 mps 689 mmHg 93%
    06:00 +23°C° 0.1 mm 1 mps 689 mmHg 90%
    07:00 +23°C° 0.1 mm 0 mps 690 mmHg 87%
    08:00 +25°C° 0.3 mm 0 mps 690 mmHg 74%
    09:00 +28°C° 0.3 mm 0 mps 691 mmHg 61%
    10:00 +33°C° 0.3 mm 1 mps 691 mmHg 48%
    11:00 +31°C° 0.3 mm 0 mps 690 mmHg 48%
    12:00 +31°C° 0.3 mm 0 mps 689 mmHg 48%
    13:00 +31°C° 0.3 mm 0 mps 689 mmHg 48%
    14:00 +30°C° 0.2 mm 0 mps 688 mmHg 53%
    15:00 +29°C° 0.2 mm 0 mps 688 mmHg 57%
    16:00 +28°C° 0.2 mm 0 mps 687 mmHg 62%
    17:00 +26°C° 0.1 mm 0 mps 687 mmHg 69%
    18:00 +26°C° 0.1 mm 1 mps 688 mmHg 75%
    19:00 +24°C° 0.1 mm 1 mps 688 mmHg 82%
    20:00 +24°C° 0 mm 1 mps 689 mmHg 82%
    21:00 +23°C° 0 mm 1 mps 689 mmHg 82%
    22:00 +23°C° 0 mm 1 mps 690 mmHg 82%
    23:00 +22°C° 0.1 mm 1 mps 690 mmHg 84%

    Day after tomorrow, 19 November, Tuesday

    Time Temperature Precipitation Wind Pressure Humidity
    00:00 +22°C° 0.1 mm 1 mps 689 mmHg 86%
    01:00 +22°C° 0.1 mm 1 mps 689 mmHg 87%
    02:00 +22°C° 0 mm 1 mps 689 mmHg 87%
    03:00 +22°C° 0 mm 1 mps 689 mmHg 87%
    04:00 +22°C° 0 mm 1 mps 690 mmHg 86%
    05:00 +23°C° 0 mm 1 mps 690 mmHg 81%
    06:00 +25°C° 0 mm 1 mps 691 mmHg 76%
    07:00 +26°C° 0 mm 1 mps 692 mmHg 70%
    08:00 +28°C° 0 mm 1 mps 692 mmHg 63%
    09:00 +30°C° 0 mm 1 mps 692 mmHg 56%
    10:00 +32°C° 0 mm 1 mps 692 mmHg 49%
    11:00 +31°C° 0 mm 1 mps 691 mmHg 53%
    12:00 +30°C° 0 mm 1 mps 690 mmHg 57%
    13:00 +29°C° 0 mm 1 mps 689 mmHg 61%
    14:00 +28°C° 0 mm 1 mps 689 mmHg 61%
    15:00 +28°C° 0 mm 1 mps 688 mmHg 61%
    16:00 +28°C° 0 mm 1 mps 688 mmHg 62%
    17:00 +27°C° 0 mm 1 mps 688 mmHg 66%
    18:00 +25°C° 0 mm 1 mps 688 mmHg 70%
    19:00 +24°C° 0 mm 1 mps 689 mmHg 74%
    20:00 +24°C° 0 mm 1 mps 689 mmHg 73%
    21:00 +24°C° 0 mm 1 mps 690 mmHg 72%
    22:00 +24°C° 0 mm 1 mps 690 mmHg 71%
    23:00 +23°C° 0.4 mm 1 mps 690 mmHg 77%

    20 November, Wednesday

    Time Temperature Precipitation Wind Pressure Humidity
    00:00 +23°C° 0.4 mm 1 mps 690 mmHg 83%
    01:00 +22°C° 0.4 mm 1 mps 690 mmHg 90%
    02:00 +22°C° 0.1 mm 1 mps 690 mmHg 90%
    03:00 +22°C° 0.1 mm 1 mps 690 mmHg 91%
    04:00 +21°C° 0.1 mm 1 mps 690 mmHg 92%
    05:00 +23°C° 0 mm 1 mps 691 mmHg 84%
    06:00 +25°C° 0 mm 1 mps 691 mmHg 76%
    07:00 +25°C° 0 mm 0 mps 692 mmHg 68%
    08:00 +30°C° 0 mm 1 mps 692 mmHg 58%
    09:00 +32°C° 0 mm 1 mps 692 mmHg 47%
    10:00 +35°C° 0 mm 1 mps 692 mmHg 37%
    11:00 +34°C° 0 mm 1 mps 691 mmHg 40%
    12:00 +34°C° 0 mm 1 mps 691 mmHg 43%
    13:00 +33°C° 0 mm 1 mps 690 mmHg 46%
    14:00 +32°C° 0 mm 1 mps 689 mmHg 50%
    15:00 +31°C° 0 mm 1 mps 688 mmHg 54%
    16:00 +30°C° 0 mm 1 mps 687 mmHg 58%
    17:00 +29°C° 0 mm 1 mps 687 mmHg 62%
    18:00 +27°C° 0 mm 1 mps 688 mmHg 65%
    19:00 +26°C° 0 mm 1 mps 688 mmHg 69%
    20:00 +26°C° 0.1 mm 1 mps 689 mmHg 71%
    21:00 +26°C° 0.1 mm 1 mps 689 mmHg 74%
    22:00 +25°C° 0.1 mm 1 mps 690 mmHg 77%
    23:00 +25°C° 0.4 mm 1 mps 689 mmHg 81%

    21 November, Thursday

    Time Temperature Precipitation Wind Pressure Humidity
    00:00 +24°C° 0.4 mm 1 mps 689 mmHg 86%
    01:00 +23°C° 0.4 mm 1 mps 688 mmHg 91%
    02:00 +21°C° 0.2 mm 0 mps 688 mmHg 92%
    03:00 +21°C° 0.2 mm 0 mps 688 mmHg 93%
    04:00 +20°C° 0.2 mm 0 mps 689 mmHg 93%
    05:00 +22°C° 0.1 mm 0 mps 689 mmHg 91%
    06:00 +23°C° 0.1 mm 0 mps 690 mmHg 88%
    07:00 +24°C° 0.1 mm 0 mps 690 mmHg 85%
    08:00 +25°C° 0.8 mm 0 mps 690 mmHg 80%
    09:00 +29°C° 0.8 mm 1 mps 690 mmHg 74%
    10:00 +30°C° 0.8 mm 1 mps 690 mmHg 69%
    11:00 +32°C° 0.5 mm 1 mps 689 mmHg 62%
    12:00 +33°C° 0.5 mm 1 mps 688 mmHg 55%
    13:00 +32°C° 0.5 mm 0 mps 688 mmHg 48%
    14:00 +31°C° 0.1 mm 0 mps 687 mmHg 55%
    15:00 +31°C° 0.1 mm 1 mps 686 mmHg 62%
    16:00 +30°C° 0.1 mm 1 mps 685 mmHg 69%
    17:00 +28°C° 0.6 mm 1 mps 686 mmHg 77%
    18:00 +26°C° 0.6 mm 1 mps 686 mmHg 85%
    19:00 +22°C° 0.6 mm 0 mps 686 mmHg 93%
    20:00 +24°C° 0.2 mm 1 mps 687 mmHg 94%
    21:00 +24°C° 0.2 mm 1 mps 687 mmHg 95%
    22:00 +23°C° 0.2 mm 1 mps 688 mmHg 96%
    23:00 +23°C° 0.1 mm 1 mps 687 mmHg 96%

    22 November, Friday

    Time Temperature Precipitation Wind Pressure Humidity
    00:00 +21°C° 0.1 mm 0 mps 687 mmHg 96%
    01:00 +21°C° 0.1 mm 0 mps 687 mmHg 97%
    02:00 +20°C° 0 mm 0 mps 687 mmHg 97%
    03:00 +20°C° 0 mm 0 mps 687 mmHg 97%
    04:00 +20°C° 0 mm 0 mps 687 mmHg 97%
    05:00 +22°C° 0.3 mm 0 mps 687 mmHg 93%
    06:00 +23°C° 0.3 mm 0 mps 688 mmHg 89%
    07:00 +24°C° 0.3 mm 0 mps 689 mmHg 85%
    08:00 +26°C° 1.1 mm 0 mps 689 mmHg 83%
    09:00 +27°C° 1.1 mm 0 mps 689 mmHg 81%
    10:00 +30°C° 1.1 mm 1 mps 688 mmHg 79%
    11:00 +29°C° 2 mm 1 mps 688 mmHg 81%
    12:00 +29°C° 2 mm 1 mps 687 mmHg 82%
    13:00 +29°C° 2 mm 1 mps 686 mmHg 83%
    14:00 +27°C° 1 mm 0 mps 686 mmHg 84%
    15:00 +27°C° 1 mm 0 mps 685 mmHg 84%
    16:00 +26°C° 1 mm 0 mps 685 mmHg 84%
    17:00 +25°C° 0.7 mm 0 mps 685 mmHg 88%
    18:00 +23°C° 0.7 mm 0 mps 686 mmHg 92%
    19:00 +24°C° 0.7 mm 1 mps 686 mmHg 95%
    20:00 +23°C° 0 mm 1 mps 686 mmHg 95%
    21:00 +23°C° 0 mm 1 mps 687 mmHg 96%
    22:00 +22°C° 0 mm 1 mps 687 mmHg 96%
    23:00 +22°C° 0 mm 1 mps 687 mmHg 96%
    Show more